Regional Weather Roundup
Issued by NWS

Home | Current Version | Previous Version | Text Only | Print | Product List | Glossary On
Versions: 1 2 3 4 5 6 7 8 9 10 11 12 13 14 15 16 17 18 19 20 21 22 23 24 25 26 27 28 29 30 31 32 33 34 35 36 37 38 39 40 41 42 43 44 45 46 47 48 49 50
000
ASUS44 KFWD 240801
RWRTX
NORTH TEXAS HOURLY WEATHER ROUNDUP
NATIONAL WEATHER SERVICE FORT WORTH TX
300 AM CDT THU APR 24 2014

NOTE: "FAIR" INDICATES FEW OR NO CLOUDS BELOW 12,000 FEET WITH NO
SIGNIFICANT WEATHER AND/OR OBSTRUCTIONS TO VISIBILITY.

TXZ118-119-240900-
DALLAS/FORT WORTH METROPLEX

CITY           SKY/WX    TMP DP  RH WIND       PRES   REMARKS
DFW AIRPORT    MOCLDY    71  62  73 S20G28    29.74S
DALLAS LOVE    MOCLDY    71  62  73 S14G22    29.76S
FTW MEACHAM    MOCLDY    71  62  73 S16G28    29.73R
DAL-EXECUTIVE  LGT RAIN  71  62  73 S10G25    29.75F
FTW-ALLIANCE   MOCLDY    70  62  76 S13G22    29.74R
FTW-NAS-JRB    MOCLDY    73  60  63 S17G25    29.77S
FTW-SPINKS     MOCLDY    70  61  74 S14G26    29.75F
ARLINGTON      MOCLDY    70  62  76 S16G26    29.74F
GRAND PRAIRIE  MOCLDY    70  61  73 S13G25    29.77F
ADDISON        MOCLDY    72  62  70 S16G22    29.78R
$$

TXZ091>094-102>105-117-120-121-131>134-240900-
NORTH CENTRAL TEXAS

CITY           SKY/WX    TMP DP  RH WIND       PRES   REMARKS
BOWIE          CLEAR     69  62  78 SE9G16    29.71F
DENTON         MOCLDY    70  62  76 SE14G21   29.75S
MCKINNEY       PTCLDY    69  63  81 SE10      29.77F
GREENVILLE     PTCLDY    64  61  88 SE7       29.79S
ROCKWALL       CLEAR     68  63  83 E10G16    29.76F
TERRELL        PTCLDY    69  65  86 S10       29.80S
CLEBURNE       PTCLDY    70  64  83 S21       29.77F
GRANBURY       PTCLDY    71  62  71 SE14G21   29.75S
$$

TXZ083>090-098>101-113>116-127>130-139>142-154-155-240900-
WESTERN NORTH TEXAS

CITY           SKY/WX    TMP DP  RH WIND       PRES   REMARKS
WICHITA FALLS  CLEAR     68  61  78 SE16      29.66F
VERNON         CLEAR     69  61  74 S17       29.64S
ABILENE        CLEAR     71  60  68 S18G24    29.69F
ABILENE-DYESS  CLEAR     71  60  69 S20G26    29.68F
MINERAL WELLS  PTCLDY    70  62  76 S14G23    29.71F
COMANCHE       CLOUDY    69  61  74 S12G18    29.76F
BROWNWOOD      CLOUDY    70  63  78 S14       29.76F
$$

TXZ143>147-156>162-174-175-240900-
CENTRAL TEXAS

CITY           SKY/WX    TMP DP  RH WIND       PRES   REMARKS
WACO           MOCLDY    68  62  81 S16G23    29.79R
WACO-MCGREGOR  PTCLDY    66  57  72 S14       29.80S
CORSICANA      MOCLDY    70  63  78 S13       29.79F
TEMPLE         CLOUDY    66  57  72 SE12      29.82F
KILLEEN        MOCLDY    66  63  88 SE15      29.78F
KILLEEN-SKYLRK PTCLDY   N/A N/A N/A SE15      29.78F
LAMPASAS       MOCLDY    67  63  86 S7        29.78S
$$

TXZ095>097-106>112-122>126-135>138-148>153-164>167-240900-
EAST TEXAS

CITY           SKY/WX    TMP DP  RH WIND       PRES   REMARKS
PARIS          PTCLDY    64  55  72 SE9       29.81F
TYLER          CLOUDY    68  62  81 S9        29.82R
LONGVIEW       CLOUDY    68  61  78 S7        29.82R
ATHENS         CLOUDY    68  63  83 S14G20    29.79S
NACOGDOCHES    CLOUDY    66  63  88 S10       29.84S
LUFKIN         CLOUDY    68  64  87 S8        29.84F
$$

SUPPLEMENTAL OBSERVATIONS (CENTRAL)

CITY           SKY/WX    TMP DP  RH WIND       PRES   REMARKS
$$

SUPPLEMENTAL OBSERVATIONS (WEST)

CITY           SKY/WX    TMP DP  RH WIND       PRES   REMARKS
$$

SUPPLEMENTAL OBSERVATIONS (EAST)

CITY           SKY/WX    TMP DP  RH WIND       PRES   REMARKS
$$

SUPPLEMENTAL OBSERVATIONS ARE A COLLECTION OF AUTOMATED INSTRUMENTS
THAT ARE MAINTAINED BY A VARIETY OF FEDERAL AND STATE AGENCIES.
CERTAIN ELEMENTS...SUCH AS HUMIDITY VALUES AND SUSTAINED WIND
SPEEDS...MAY BE APPROXIMATED.




USA.gov is the U.S. government's official web portal to all federal, state and local government web resources and services.